Regional Weather Roundup
Issued by NWS

Home | Current Version | Previous Version | Graphics & Text | Print | Product List | Glossary On
Versions: 1 2 3 4 5 6 7 8 9 10 11 12 13 14 15 16 17 18 19 20 21 22 23 24 25 26 27 28 29 30 31 32 33 34 35 36 37 38 39 40 41 42 43 44 45 46 47 48 49 50
000
ASUS43 KIND 271709
RWRIN

WEATHER ROUNDUP FOR INDIANA
NATIONAL WEATHER SERVICE INDIANAPOLIS IN
100 PM EDT WED MAY 27 2015

NOTE: "FAIR" INDICATES FEW OR NO CLOUDS BELOW 12,000 FEET WITH NO
SIGNIFICANT WEATHER AND/OR OBSTRUCTIONS TO VISIBILITY.

* - STATION DOES NOT REPORT WEATHER SUCH AS PRECIPITATION OR FOG.

+ - STATION NOT QUALITY CONTROLLED BY THE NATIONAL WEATHER SERVICE.
    USE DATA WITH CAUTION...ESPECIALLY DEWPOINT AND RELATIVE
    HUMIDITY OBSERVATIONS.

INZ001>003-010>013-019-020-271800-
NORTHWEST INDIANA

CITY           SKY/WX    TMP DP  RH WIND       PRES   REMARKS
GARY /AIRPORT/ PTSUNNY   73  57  56 W22G33    29.99R
KNOX *+        PTSUNNY   73  64  73 SW14      29.97F
LA PORTE +     PTSUNNY   76  61  59 W17G24    29.98S
MICHIGAN CITY+ PTSUNNY   73  54  49 W14G22    29.98S
MONTICELLO +   LGT RAIN  68  66  92 SW5       30.01R
RENSSELAER +   CLOUDY    72  68  88 SW12      30.01S
VALPARAISO     PTSUNNY   76  59  55 W21       29.99R

$$

LMZ046-743>745-271800-
SOUTHERN LAKE MICHIGAN

STATION/POSITION TIME  TEMP    WIND        PRES    WAVE
                       AIR SEA DIR/SP/G            HT
                 (UTC) (F)     (DEG/KT/KT) (MB)    (FT)
BURNS HARBOR     1700   68     260/ 20/ 24 1015.6R
MICHIGAN CITY    1700   63     230/ 17/ 23   N/A
5NW MICH CITY    1700   58 52  260/  8/ 10   N/A     1

$$

INZ004-005-014>016-021>024-271800-
NORTH CENTRAL INDIANA

CITY           SKY/WX    TMP DP  RH WIND       PRES   REMARKS
GOSHEN         LGT RAIN  70  64  81 SW18G25   29.98F
LOGANSPORT +   PTSUNNY   79  59  50 SW23G31   30.00F
PERU/GRISSOM   PTSUNNY   81  64  56 SW25G33   29.98F
ROCHESTER +    PTSUNNY   70  68  94 W6        30.01R
SOUTH BEND     LGT RAIN  71  64  78 SW12G22   29.97F
WARSAW +       MOSUNNY   72  63  73 W10       29.99F

$$

INZ006>009-017-018-025>027-271800-
NORTHEAST INDIANA

CITY           SKY/WX    TMP DP  RH WIND       PRES   REMARKS
ANGOLA *+      MOSUNNY   70  63  78 SW16      30.00S
AUBURN +       LGT RAIN  73  63  68 SW8G20    30.00F
FORT WAYNE     TSTM      76  66  71 S14G25    29.99F
HUNTINGTON +   PTSUNNY   78  64  60 S10G18    29.99F THUNDER

$$

INZ028-029-035-036-043>045-051>053-271800-
WEST CENTRAL INDIANA

CITY           SKY/WX    TMP DP  RH WIND       PRES   REMARKS
CRAWFORDSVL +  PTSUNNY   77  58  51 SW20      30.05S
GREENCASTLE +  MOSUNNY   79  59  50 SW6       30.07S
LAFAYETTE      PTSUNNY   76  64  66 SW21G26   30.02R
TERRE HAUTE    PTSUNNY   78  60  53 SW13G21   30.05F

$$

INZ030>032-037>040-046>048-054>057-064-065-271800-
CENTRAL INDIANA

CITY           SKY/WX    TMP DP  RH WIND       PRES   REMARKS
ANDERSON       MOSUNNY   79  57  47 S12G17    30.07S
CP ATTERBURY + MOSUNNY   79  63  57 SW13      30.09R
COLUMBUS       SUNNY     79  63  57 SW12      30.09F
FISHERS *+     PTSUNNY   77  66  69 SW12G18   30.05S
FRANKFORT +    PTSUNNY   81  63  55 S22G28    30.04S
GREENWOOD *+   MOSUNNY   77  61  57 SW9       30.08S
INDIANAPOLIS   PTSUNNY   82  60  47 S23G29    30.04S
-EAGLE CREEK   PTSUNNY   79  59  50 SW8G22    30.04S
KOKOMO *+      PTSUNNY   81  63  54 SW23G30   30.00F
MARION +       PTSUNNY   80  59  48 SW24G31   30.01F
MT COMFORT *+  MOSUNNY   79  55  44 S13G21    30.07S
SHELBYVILLE    MOSUNNY   80  64  58 SW17      30.07F
ZIONSVILLE +   PTSUNNY   81  58  45 SW22G31   30.05S

$$

INZ033-034-041-042-049-050-058-059-271800-
EAST CENTRAL INDIANA

CITY           SKY/WX    TMP DP  RH WIND       PRES   REMARKS
MUNCIE         MOSUNNY   80  62  54 S12G23    30.04F

$$

INZ060-061-067>069-081>083-085>088-271800-
SOUTHWEST INDIANA

CITY           SKY/WX    TMP DP  RH WIND       PRES   REMARKS
EVANSVILLE     PTSUNNY   75  64  68 SE7       30.10F
HUNTINGBURG *+ CLOUDY    72  64  78 SW6       30.13S
WASHINGTON +   CLOUDY    77  62  60 SW7       30.10S

$$

INZ062-063-066-070>080-084-089>092-271800-
SOUTH CENTRAL AND SOUTHEAST INDIANA

CITY           SKY/WX    TMP DP  RH WIND       PRES   REMARKS
BLOOMINGTON    PTSUNNY   79  63  57 SW17      30.10R
MADISON *+     MOSUNNY   79  63  57 S10       30.13F
NORTH VERNON + SUNNY     79  64  61 SW9G17    30.11F
SEYMOUR +      MOSUNNY   82  63  51 SW16G23   30.11R

$$




USA.gov is the U.S. government's official web portal to all federal, state and local government web resources and services.